Terminal Aerodrome Forecast
Issued by NWS Caribou, ME

Home | Current Version | Previous Version | Text Only | Print | Product List | Glossary On
Versions: 1 2 3 4 5 6 7 8 9 10 11 12 13 14 15
000
FTUS41 KCAR 292351
TAFCAR
TAF
KCAR 292351Z 3000/3024 21005KT P6SM BKN045 OVC060
     FM300600 22006KT P6SM BKN020
     FM300900 20005KT 6SM -RA SCT007 OVC015
     FM301100 23005KT 5SM -RA OVC008
     FM301600 27006KT P6SM SCT025 BKN040
     FM302100 25005KT P6SM SCT100=

USA.gov is the U.S. government's official web portal to all federal, state and local government web resources and services.